Вернуться в каталог

STARLINK-34864

АктивенСвязьVLEO
NORAD 65330·PAYLOAD·🇺🇸 United States

Запущен Aug 27, 2025 с Cape Canaveral Space Force Station

Loading…

Ближайшие Пролёты (ближайшие 24 часа)

TLE

СвежийSource: CelesTrak SupGP

Эпоха: Sep 15, 2026, 03:11 UTC

1 65330C 25189H   26258.13312500 -.00009728  00000+0 -31282-3 0  2584
2 65330  53.1587  45.5857 0001047  94.2879  81.4413 15.31708315    19

Отслеживайте STARLINK-34864 в реальном времени с AllMySat

Download on the App Store